• Em Portugal
  • Lista de países
  • Para 7 dias
  • Temperatura da água
  • Mapas de satélite
  • Mapa do tempo
  • Widgets de tempo
  • user-avatar
    Iniciar Sessão

    Previsão horária em Oparowka

    Hoje, 23 Abril, Segunda-feira

    Tempo Temperatura Precipitação Vento Pressão Humidade
    00:00 +9°C° 0 mm 0 m/s 737 mmHg 67%
    01:00 +9°C° 0 mm 0 m/s 736 mmHg 67%
    02:00 +8°C° 0 mm 0 m/s 736 mmHg 68%
    03:00 +8°C° 0 mm 0 m/s 736 mmHg 68%
    04:00 +8°C° 0 mm 0 m/s 736 mmHg 69%
    05:00 +10°C° 0 mm 0 m/s 736 mmHg 65%
    06:00 +12°C° 0 mm 0 m/s 736 mmHg 61%
    07:00 +13°C° 0 mm 0 m/s 736 mmHg 57%
    08:00 +16°C° 0 mm 0 m/s 736 mmHg 52%
    09:00 +20°C° 0 mm 1 m/s 736 mmHg 47%
    10:00 +22°C° 0 mm 1 m/s 736 mmHg 42%
    11:00 +23°C° 0 mm 1 m/s 736 mmHg 40%
    12:00 +24°C° 0 mm 1 m/s 736 mmHg 39%
    13:00 +25°C° 0 mm 1 m/s 735 mmHg 37%
    14:00 +24°C° 0,1 mm 2 m/s 735 mmHg 40%
    15:00 +24°C° 0,1 mm 2 m/s 735 mmHg 44%
    16:00 +24°C° 0,1 mm 2 m/s 734 mmHg 47%
    17:00 +21°C° 0,8 mm 2 m/s 734 mmHg 57%
    18:00 +19°C° 0,8 mm 2 m/s 734 mmHg 68%
    19:00 +17°C° 0,8 mm 3 m/s 734 mmHg 78%
    20:00 +17°C° 0,5 mm 3 m/s 734 mmHg 81%
    21:00 +16°C° 0,5 mm 3 m/s 734 mmHg 84%
    22:00 +16°C° 0,5 mm 3 m/s 734 mmHg 86%
    23:00 +14°C° 0,5 mm 3 m/s 734 mmHg 88%

    Amanhã, 24 Abril, Terça-feira

    Tempo Temperatura Precipitação Vento Pressão Humidade
    00:00 +14°C° 0,5 mm 3 m/s 734 mmHg 90%
    01:00 +15°C° 0,5 mm 2 m/s 735 mmHg 93%
    02:00 +14°C° 0 mm 2 m/s 735 mmHg 93%
    03:00 +13°C° 0 mm 3 m/s 735 mmHg 94%
    04:00 +13°C° 0 mm 3 m/s 735 mmHg 95%
    05:00 +13°C° 0 mm 3 m/s 736 mmHg 93%
    06:00 +14°C° 0 mm 3 m/s 736 mmHg 91%
    07:00 +14°C° 0 mm 3 m/s 737 mmHg 90%
    08:00 +16°C° 0,1 mm 3 m/s 737 mmHg 83%
    09:00 +17°C° 0,1 mm 3 m/s 737 mmHg 77%
    10:00 +18°C° 0,1 mm 3 m/s 737 mmHg 71%
    11:00 +19°C° 0 mm 3 m/s 737 mmHg 66%
    12:00 +19°C° 0 mm 3 m/s 737 mmHg 60%
    13:00 +20°C° 0 mm 4 m/s 737 mmHg 55%
    14:00 +20°C° 0 mm 3 m/s 737 mmHg 54%
    15:00 +20°C° 0 mm 3 m/s 736 mmHg 52%
    16:00 +20°C° 0 mm 3 m/s 736 mmHg 51%
    17:00 +19°C° 0 mm 2 m/s 736 mmHg 57%
    18:00 +18°C° 0 mm 1 m/s 736 mmHg 64%
    19:00 +15°C° 0 mm 1 m/s 736 mmHg 70%
    20:00 +14°C° 0 mm 1 m/s 736 mmHg 71%
    21:00 +14°C° 0 mm 1 m/s 736 mmHg 72%
    22:00 +14°C° 0 mm 2 m/s 736 mmHg 73%
    23:00 +13°C° 0 mm 2 m/s 736 mmHg 74%

    Depois de amanhã, 25 Abril, Quarta-feira

    Tempo Temperatura Precipitação Vento Pressão Humidade
    00:00 +13°C° 0 mm 2 m/s 736 mmHg 75%
    01:00 +13°C° 0 mm 2 m/s 736 mmHg 77%
    02:00 +12°C° 0 mm 2 m/s 736 mmHg 79%
    03:00 +12°C° 0 mm 2 m/s 736 mmHg 81%
    04:00 +12°C° 0 mm 2 m/s 736 mmHg 84%
    05:00 +13°C° 0 mm 2 m/s 736 mmHg 80%
    06:00 +15°C° 0 mm 2 m/s 736 mmHg 76%
    07:00 +16°C° 0 mm 2 m/s 736 mmHg 73%
    08:00 +18°C° 0 mm 2 m/s 736 mmHg 66%
    09:00 +20°C° 0 mm 3 m/s 736 mmHg 60%
    10:00 +22°C° 0 mm 3 m/s 736 mmHg 53%
    11:00 +22°C° 0 mm 4 m/s 736 mmHg 52%
    12:00 +23°C° 0 mm 4 m/s 735 mmHg 51%
    13:00 +23°C° 0 mm 4 m/s 735 mmHg 49%
    14:00 +23°C° 0 mm 4 m/s 734 mmHg 50%
    15:00 +23°C° 0 mm 4 m/s 734 mmHg 51%
    16:00 +23°C° 0 mm 4 m/s 733 mmHg 51%
    17:00 +22°C° 0 mm 3 m/s 733 mmHg 56%
    18:00 +20°C° 0 mm 3 m/s 733 mmHg 61%
    19:00 +18°C° 0 mm 2 m/s 733 mmHg 66%
    20:00 +17°C° 0 mm 3 m/s 733 mmHg 68%
    21:00 +17°C° 0 mm 3 m/s 733 mmHg 70%
    22:00 +16°C° 0 mm 3 m/s 733 mmHg 72%
    23:00 +16°C° 0 mm 3 m/s 733 mmHg 75%

    26 Abril, Quinta-feira

    Tempo Temperatura Precipitação Vento Pressão Humidade
    00:00 +14°C° 0 mm 3 m/s 733 mmHg 77%
    01:00 +14°C° 0 mm 3 m/s 733 mmHg 80%
    02:00 +14°C° 0 mm 2 m/s 734 mmHg 84%
    03:00 +14°C° 0 mm 2 m/s 734 mmHg 88%
    04:00 +13°C° 0 mm 2 m/s 734 mmHg 92%
    05:00 +14°C° 0 mm 2 m/s 734 mmHg 87%
    06:00 +15°C° 0 mm 2 m/s 735 mmHg 82%
    07:00 +17°C° 0 mm 3 m/s 735 mmHg 77%
    08:00 +18°C° 0 mm 3 m/s 735 mmHg 71%
    09:00 +19°C° 0 mm 3 m/s 735 mmHg 66%
    10:00 +20°C° 0 mm 3 m/s 736 mmHg 60%
    11:00 +20°C° 0,1 mm 3 m/s 735 mmHg 57%
    12:00 +21°C° 0,1 mm 3 m/s 735 mmHg 54%
    13:00 +22°C° 0,1 mm 3 m/s 735 mmHg 51%
    14:00 +21°C° 0,2 mm 3 m/s 735 mmHg 56%
    15:00 +20°C° 0,2 mm 3 m/s 734 mmHg 62%
    16:00 +18°C° 0,2 mm 3 m/s 734 mmHg 67%
    17:00 +17°C° 0,3 mm 3 m/s 734 mmHg 72%
    18:00 +16°C° 0,3 mm 3 m/s 735 mmHg 76%
    19:00 +14°C° 0,3 mm 3 m/s 735 mmHg 81%
    20:00 +13°C° 0,5 mm 3 m/s 736 mmHg 84%
    21:00 +12°C° 0,5 mm 3 m/s 736 mmHg 88%
    22:00 +11°C° 0,5 mm 3 m/s 736 mmHg 91%
    23:00 +11°C° 0,4 mm 3 m/s 737 mmHg 91%

    27 Abril, Sexta-feira

    Tempo Temperatura Precipitação Vento Pressão Humidade
    00:00 +11°C° 0,4 mm 3 m/s 737 mmHg 92%
    01:00 +10°C° 0,4 mm 3 m/s 737 mmHg 92%
    02:00 +10°C° 0,2 mm 2 m/s 737 mmHg 92%
    03:00 +10°C° 0,2 mm 2 m/s 737 mmHg 92%
    04:00 +10°C° 0,2 mm 2 m/s 737 mmHg 91%
    05:00 +10°C° 0 mm 2 m/s 738 mmHg 87%
    06:00 +10°C° 0 mm 2 m/s 738 mmHg 82%
    07:00 +12°C° 0 mm 2 m/s 738 mmHg 77%
    08:00 +12°C° 0 mm 3 m/s 738 mmHg 68%
    09:00 +13°C° 0 mm 3 m/s 738 mmHg 59%
    10:00 +14°C° 0 mm 3 m/s 739 mmHg 50%
    11:00 +16°C° 0 mm 3 m/s 738 mmHg 48%
    12:00 +16°C° 0 mm 3 m/s 738 mmHg 45%
    13:00 +17°C° 0 mm 3 m/s 738 mmHg 43%
    14:00 +17°C° 0 mm 2 m/s 738 mmHg 44%
    15:00 +17°C° 0 mm 2 m/s 738 mmHg 44%
    16:00 +17°C° 0 mm 2 m/s 738 mmHg 45%
    17:00 +15°C° 0 mm 2 m/s 738 mmHg 50%
    18:00 +14°C° 0 mm 2 m/s 738 mmHg 56%
    19:00 +12°C° 0 mm 2 m/s 738 mmHg 62%
    20:00 +10°C° 0 mm 2 m/s 738 mmHg 64%
    21:00 +9°C° 0 mm 2 m/s 738 mmHg 67%
    22:00 +9°C° 0 mm 2 m/s 738 mmHg 70%
    23:00 +8°C° 0 mm 2 m/s 738 mmHg 72%

    28 Abril, Sábado

    Tempo Temperatura Precipitação Vento Pressão Humidade
    00:00 +8°C° 0 mm 2 m/s 738 mmHg 75%
    01:00 +7°C° 0 mm 2 m/s 738 mmHg 78%
    02:00 +7°C° 0 mm 2 m/s 738 mmHg 79%
    03:00 +7°C° 0 mm 2 m/s 738 mmHg 81%
    04:00 +7°C° 0 mm 2 m/s 737 mmHg 82%
    05:00 +8°C° 0 mm 2 m/s 737 mmHg 78%
    06:00 +10°C° 0 mm 3 m/s 737 mmHg 74%
    07:00 +12°C° 0 mm 3 m/s 737 mmHg 69%
    08:00 +14°C° 0 mm 3 m/s 737 mmHg 65%
    09:00 +18°C° 0 mm 3 m/s 737 mmHg 62%
    10:00 +20°C° 0 mm 3 m/s 737 mmHg 58%
    11:00 +21°C° 0 mm 3 m/s 736 mmHg 56%
    12:00 +22°C° 0 mm 4 m/s 736 mmHg 54%
    13:00 +25°C° 0 mm 4 m/s 735 mmHg 52%
    14:00 +23°C° 0,2 mm 4 m/s 735 mmHg 55%
    15:00 +23°C° 0,2 mm 4 m/s 735 mmHg 58%
    16:00 +23°C° 0,2 mm 4 m/s 734 mmHg 61%
    17:00 +21°C° 0,2 mm 4 m/s 734 mmHg 70%
    18:00 +19°C° 0,2 mm 3 m/s 734 mmHg 78%
    19:00 +17°C° 0,2 mm 3 m/s 734 mmHg 87%
    20:00 +17°C° 0 mm 3 m/s 734 mmHg 88%
    21:00 +16°C° 0 mm 3 m/s 734 mmHg 90%
    22:00 +16°C° 0 mm 3 m/s 734 mmHg 92%
    23:00 +16°C° 0 mm 3 m/s 734 mmHg 92%
    Mostrar mais